Date,TemperatureHighF,TemperatureAvgF,TemperatureLowF,DewpointHighF,DewpointAvgF,DewpointLowF,HumidityHigh,HumidityAvg,HumidityLow,PressureMaxIn,PressureMinIn,WindSpeedMaxMPH,WindSpeedAvgMPH,GustSpeedMaxMPH,PrecipitationSumIn
2013-1-1,27,20,7,24,12,-3,91,71,55,29.91,29.74,8,4,21,0.00
2013-1-2,17,9,-1,13,4,-9,87,78,65,30.09,29.87,6,2,23,0.00
2013-1-3,20,5,-8,11,-2,-13,87,71,40,30.11,29.95,4,0,10,0.00
2013-1-4,32,24,14,20,17,11,94,75,56,29.95,29.82,11,4,31,0.00
2013-1-5,33,26,20,22,16,8,86,69,38,30.24,29.86,10,4,25,0.00
2013-1-6,31,24,20,26,21,14,96,86,75,30.17,29.95,2,0,8,0.00
2013-1-7,31,24,17,28,19,13,92,79,52,30.36,29.99,6,2,18,0.00
2013-1-8,40,28,19,22,18,14,94,69,40,30.37,28.27,3,1,11,0.01
2013-1-9,39,32,26,29,21,16,84,63,42,30.37,30.04,10,2,27,0.31
2013-1-10,39,32,26,29,20,17,89,61,42,30.53,30.11,8,4,26,0.00
2013-1-11,34,30,24,34,21,14,100,72,50,30.52,30.17,3,1,8,0.13
2013-1-12,44,39,33,44,38,33,100,98,93,30.21,30.14,2,0,3,0.04
2013-1-13,47,40,36,46,40,35,100,97,87,30.19,30.03,2,0,4,0.04
2013-1-14,44,36,27,42,31,20,96,83,55,30.30,29.96,4,1,12,0.09
2013-1-15,30,26,23,22,20,18,89,77,62,30.34,30.21,3,1,8,0.00
2013-1-16,29,26,23,29,24,18,100,91,73,30.22,29.84,1,0,4,0.00
2013-1-17,31,24,15,26,18,0,97,76,50,30.11,29.85,5,1,13,0.00
2013-1-18,18,11,5,3,-5,-34,69,49,34,30.33,30.03,6,1,20,0.00
2013-1-19,41,28,12,22,14,3,67,56,36,30.24,29.85,3,1,11,0.00
2013-1-20,40,29,14,31,18,6,94,65,40,29.94,29.62,9,4,27,0.06
2013-1-21,20,14,10,12,5,-1,89,68,44,30.02,29.75,7,1,20,0.00
2013-1-22,14,8,2,12,-1,-10,89,68,38,30.00,29.73,8,2,21,0.00
2013-1-23,7,-2,-7,-3,-14,-17,82,57,37,30.04,29.98,7,2,21,0.00
2013-1-24,11,-1,-8,-10,-13,-16,70,55,35,30.19,29.99,8,3,24,0.00
2013-1-25,16,4,-5,2,-10,-18,81,53,21,30.25,29.99,5,1,17,0.00
2013-1-26,16,7,-1,1,-3,-7,85,65,37,30.20,29.96,5,2,15,0.00
2013-1-27,23,11,4,0,-3,-8,76,54,27,30.42,30.20,5,2,14,0.00
2013-1-28,22,17,9,21,8,-11,93,69,27,30.40,29.97,3,0,6,0.00
2013-1-29,37,30,22,34,29,20,100,95,87,30.15,29.98,2,0,6,0.11
2013-1-30,52,44,32,51,44,32,100,98,95,30.10,29.45,6,2,17,0.30
2013-1-31,53,34,17,52,29,13,96,84,56,29.62,29.07,11,5,28,0.72